Regional Weather Roundup
Issued by NWS

Home | Current Version | Previous Version | Text Only | Print | Product List | Glossary On
Versions: 1 2 3 4 5 6 7 8 9 10 11 12 13 14 15 16 17 18 19 20 21 22 23 24 25 26 27 28 29 30 31 32 33 34 35 36 37 38 39 40 41 42 43 44 45 46 47 48 49 50
000
ASUS45 KBOU 282207
RWRCO

WEATHER ROUNDUP FOR COLORADO
NATIONAL WEATHER SERVICE DENVER/BOULDER CO
400 PM MDT THU AUG 28 2014

NOTE: "FAIR" INDICATES FEW OR NO CLOUDS BELOW 12000 FEET WITH NO
SIGNIFICANT WEATHER AND/OR OBSTRUCTIONS TO VISIBILITY.

COZ001>005-013-030-031-282300-
...NORTHWEST COLORADO...

CITY           SKY/WX    TMP DP  RH WIND       PRES   REMARKS
CRAIG          MOSUNNY   71  48  43 W6        30.23F
HAYDEN         MOSUNNY   68  45  42 W14       30.24F
MEEKER         PTSUNNY   69  49  48 VRB3      30.25F
MOUNT WERNER   NOT AVBL
STEAMBOAT SPGS CLOUDY    57  51  81 E9        30.28S
WALDEN         PTSUNNY   55  43  62 SW5       30.32F
$$

COZ006>008-011-282300-
...WEST CENTRAL VALLEYS...

CITY           SKY/WX    TMP DP  RH WIND       PRES   REMARKS
GRAND JUNCTION PTSUNNY   75  52  44 VRB6      30.17F
MONTROSE       MOSUNNY   72  48  42 W6        30.25F
EAGLE          PTSUNNY   70  45  40 W3        30.27F
RIFLE          PTSUNNY   69  50  50 CALM      30.20F
DELTA          PTSUNNY   75  50  41 SE3       30.21F
NUCLA          NOT AVBL
$$

COZ017>023-064>068-282300-
...SOUTHWEST COLORADO...

CITY           SKY/WX    TMP DP  RH WIND       PRES   REMARKS
DURANGO        SUNNY     76  37  24 NW9G23    30.19F
CORTEZ         SUNNY     77  45  32 N13G23    30.21F
PAGOSA SPRINGS CLOUDY    71  33  25 W6        30.26F
TELLURIDE      PTSUNNY   59  39  47 N8        30.40F
WOLF CREEK PAS PTSUNNY   46  34  61 N8        30.53S
$$

COZ009-010-012-014-032>034-037-058>063-282300-
...CENTRAL COLORADO...

CITY           SKY/WX    TMP DP  RH WIND       PRES   REMARKS
ASPEN          MOSUNNY   61  43  51 VRB5      30.32F
BUENA VISTA    CLOUDY    62  36  38 NW17G29   30.29R
COPPER MTN     LGT RAIN  39  36  87 W23       30.54R VSB<1/4
BERTHOUD PASS  SNOW      32  32 100 N18G35    30.52S VSB<1/4 WCI  20
COTTONWOOD PAS RAIN      54  43  66 CALM      30.41R
GUNNISON       PTSUNNY   64  37  36 NW12G18   30.31F
KREMMLING      CLOUDY    57  43  58 CALM      30.33F
LEADVILLE      PTSUNNY   51  35  54 N15G26    30.42S
MONARCH PASS   PTSUNNY   43  39  87 W15G22    30.61S
SALIDA         PTSUNNY   65  45  47 W9        30.33R
SUNLIGHT       CLOUDY    48  45  87 NW5       30.52S
WILKERSON PASS NOT AVBL
$$

COZ069>075-282300-
...SAN LUIS VALLEY/SANGRE DE CRISTO MOUNTAINS...

CITY           SKY/WX    TMP DP  RH WIND       PRES   REMARKS
ALAMOSA        SUNNY     72  37  28 N9        30.23F
LA VETA PASS   NOT AVBL
SAGUACHE       NOT AVBL
$$

COZ035-036-038>040-282300-
...NORTHERN COLORADO FRONT RANGE...

CITY           SKY/WX    TMP DP  RH WIND       PRES   REMARKS
DENVER INTL AP CLOUDY    64  47  53 NW25      30.17R
DMNS CITY PARK   N/A     61  51  69 N7G14     30.20R
AURORA         LGT RAIN  60  50  69 NW13      30.21R
FRONT RANGE AP NOT AVBL
ERIE MUNI ARPT LGT RAIN  59  53  80 N5        30.18S
BOULDER MUN AP LGT RAIN  61  52  72 CALM      30.17F
CENTENNIAL     LGT RAIN  54  50  86 N14       30.23R FOG
BROOMFIELD     NOT AVBL
FORT COLLINS   CLOUDY    63  52  67 NW8       30.17F
LONGMONT       CLOUDY    65  52  63 CALM      30.18F
$$

COZ041-046-047-076>085-087-088-282300-
...PIKES PEAK/PALMER DIVIDE AND SOUTHERN FOOTHILLS...

CITY           SKY/WX    TMP DP  RH WIND       PRES   REMARKS
COLO. SPRINGS  CLOUDY    66  45  46 VRB5      30.18S THUNDER
A. F. ACADEMY  LGT RAIN  57  50  77 N14       30.23R
ELLICOTT       CLOUDY    66  49  54 N10G17    30.16R
FALCON         CLOUDY    60  46  60 N21G28    30.22S
FORT CARSON    CLOUDY    67  47  49 SE9       30.15S
LIMON          MOSUNNY   70  45  40 NW29      30.12S
MONUMENT HILL  CLOUDY    54  50  87 N10       30.25S
TRINIDAD       PTSUNNY   74  39  28 CALM      30.12S
$$

COZ042>045-048>051-090-091-282300-
...NORTHEAST COLORADO...

CITY           SKY/WX    TMP DP  RH WIND       PRES   REMARKS
GREELEY ARPT   CLOUDY    66  48  52 NW14      30.14S
AKRON          PTSUNNY   69  55  60 NW24G30   30.07F
BURLINGTON     MOSUNNY   80  51  36 N14G23    30.01F
WRAY             N/A     74  57  54 NW14G23   29.99R
STERLING       PTSUNNY   72  59  64 NW16      30.04S
HOLYOKE        PTSUNNY   75  59  57 NW18      30.00S
FORT MORGAN    PTSUNNY   69  52  53 N14G21    30.10S
$$

COZ086-089-092>099-282300-
...SOUTHEAST COLORADO...

CITY           SKY/WX    TMP DP  RH WIND       PRES   REMARKS
PUEBLO         CLOUDY    72  49  44 NE14      30.08R THUNDER
LA JUNTA       PTSUNNY   72  55  55 E10       30.04R THUNDER
LAMAR          PTSUNNY   75  49  39 N15G28    29.98F
SPRINGFIELD      N/A     81  48  31 N9G17     30.01F
$$



USA.gov is the U.S. government's official web portal to all federal, state and local government web resources and services.